Location: Bédeille
(43.0872°N, 1.1041°E)
Time: 02:12:20
(UTC+00:00)

Lacrosse 5 - Pass Details

Date: 03 February 2023
Orbit: 714 x 724 km, 57.0° (Epoch: 09 March)

Event Time Altitude Azimuth Distance (km) Brightness Sun altitude
Rises 20:08:54 0° 276° (W) 3,135 6.3 -32.8°
Reaches altitude 10° 20:11:48 10° 292° (WNW) 2,217 5.2 -33.3°
Enters shadow 20:15:03 21° 331° (NNW) 1,598 3.9 -33.9°
